Wind_Speed
16 17 15 15 16 13 7 3 2 3 2 1 3 3 5 3 3 4 8 10 3 2 3 5 5 4 5 5 6 3 3 4 4 4 3 3 20 35 30 30 35 33 32 31 28 27 25 26 24 24 26 27 27 26 25 24 22 20 19 20 21 20 19 18 18 18 18 18 18 18 17 17 17 17 17 16 16 15 14 14 13 12 12 11 11 11 11 10 9 8 9 10 10 10 10 11 13
15 15 13 13 11 5 2 3 2 3 3 2 3 3 6 5 6 4 7 9 4 0 2 8 8 8 8 6 5 4 5 4 3 4 1 12 24 27 31 35 37 35 34 32 29 28 27 27 25 25 27 28 27 26 26 24 22 20 20 21 20 20 18 18 18 18 18 17 17 17 17 16 17 17 17 16 15 14 14 13 12 12 11 11 10 10 10 9 8 8 9 10 11 11 12 14 16
13 12 13 11 6 3 1 3 1 1 1 4 4 4 5 7 10 6 8 9 1 3 4 8 6 6 5 3 2 3 2 2 5 4 4 18 19 23 36 37 37 36 34 33 31 30 29 27 26 26 27 29 28 27 26 24 22 21 20 21 21 20 18 18 18 17 17 17 17 16 16 16 16 16 16 15 14 14 14 12 11 10 10 10 9 9 9 8 7 7 8 10 12 12 15 15 15
10 10 13 9 3 3 3 2 2 3 2 4 4 5 5 7 12 8 9 10 4 3 0 2 2 1 0 4 1 3 3 1 5 5 7 15 17 29 39 38 39 37 35 34 31 31 29 27 26 26 27 29 28 27 26 24 22 21 21 21 21 20 19 19 18 17 17 17 16 16 15 16 16 15 15 15 14 14 13 11 11 10 9 9 9 8 8 7 7 7 8 10 12 14 16 15 14
8 8 8 3 2 1 2 1 1 3 4 4 3 5 6 8 12 10 10 11 9 7 3 1 1 3 3 3 2 2 4 4 4 7 12 15 23 35 36 38 41 37 36 34 32 31 28 27 26 26 28 30 29 28 26 24 23 22 22 22 21 20 19 18 18 17 16 17 16 16 15 15 15 14 14 14 13 13 12 11 10 10 9 8 7 7 7 7 7 7 8 10 11 14 15 15 13
7 6 3 2 1 1 2 1 2 3 5 5 3 6 8 11 12 12 13 14 11 8 2 2 2 2 2 2 1 2 4 6 8 11 17 22 31 36 35 38 39 37 36 34 32 31 28 27 27 27 28 29 29 28 26 25 23 23 23 22 21 20 20 18 18 17 16 16 16 15 15 14 13 12 12 12 12 11 10 9 8 8 7 6 6 6 7 8 7 7 8 10 11 13 14 14 12
5 5 2 2 1 0 3 3 5 5 6 6 5 7 10 13 13 12 13 14 11 6 1 3 4 6 1 3 1 2 1 7 11 16 25 32 36 37 36 36 36 36 35 33 32 31 28 26 27 27 27 28 29 28 27 25 24 24 24 22 21 20 20 19 18 17 16 16 15 14 14 13 11 11 11 10 10 10 9 8 7 7 7 6 7 7 8 8 7 7 8 9 10 13 14 13 12
3 1 1 3 1 1 2 4 5 5 5 5 6 8 11 13 13 12 12 11 9 8 1 4 3 5 2 3 2 5 5 10 14 22 33 38 40 37 35 35 35 35 33 33 32 30 27 26 27 25 25 27 28 28 27 26 25 25 23 22 21 20 19 19 18 17 16 15 15 14 12 11 9 9 9 8 8 8 7 6 6 6 6 7 8 8 8 8 7 8 8 9 10 13 13 12 11
1 1 1 2 2 2 1 3 4 4 5 6 7 10 11 12 12 12 14 12 10 12 5 7 4 3 3 3 2 4 8 18 24 30 36 39 41 37 35 34 35 35 32 32 30 28 26 26 26 23 24 26 28 27 26 26 25 24 22 21 21 20 19 18 18 17 16 15 14 12 11 9 7 6 5 6 5 6 6 4 5 6 5 7 8 8 8 7 7 8 9 9 10 12 13 12 10
1 0 1 1 2 3 4 3 4 4 6 7 8 11 11 11 11 13 14 13 12 12 6 5 3 5 5 3 2 1 10 27 32 31 33 36 37 36 34 33 35 36 33 31 28 27 25 24 22 22 23 24 27 26 25 26 25 24 22 22 21 20 19 18 17 17 16 15 13 11 9 7 6 5 5 5 5 5 5 4 4 6 7 8 9 8 8 7 7 8 9 9 10 11 11 11 9
2 1 2 2 2 4 5 4 6 5 6 6 7 10 10 11 11 14 14 14 14 7 3 2 5 7 6 2 0 5 19 31 33 30 30 31 31 33 33 31 33 34 33 31 28 26 24 22 20 21 22 23 25 25 25 25 24 23 22 22 21 20 19 18 17 16 15 13 12 10 7 6 5 5 5 5 5 5 5 5 5 6 8 9 10 9 8 7 7 8 8 9 10 10 11 10 8
2 2 3 3 4 5 6 5 7 7 7 6 7 9 9 12 11 14 15 14 12 5 8 5 7 8 6 2 0 10 20 26 32 33 30 29 30 32 31 31 32 32 32 30 28 26 23 21 20 20 21 22 24 25 24 24 23 22 22 21 20 19 18 17 16 15 14 12 10 8 6 6 6 6 5 5 5 5 5 5 5 7 8 10 11 10 9 7 7 7 8 9 9 9 9 9 8
2 4 4 3 4 5 6 5 6 6 6 5 8 9 8 11 13 14 13 14 14 8 9 9 11 7 5 3 2 8 13 20 31 32 29 30 30 30 30 31 31 30 30 29 28 25 22 22 20 19 20 21 22 23 23 23 22 21 21 20 19 19 17 16 15 14 12 11 9 7 7 6 6 6 6 6 5 5 5 5 6 7 9 11 11 11 9 8 7 7 7 7 8 8 7 7 7
4 3 5 3 3 5 5 4 4 5 5 5 7 9 9 9 12 12 8 13 17 11 7 11 14 9 4 4 3 4 11 21 29 31 31 31 30 30 30 30 30 29 29 29 28 25 23 22 21 20 19 20 20 21 21 20 20 20 20 19 18 17 16 15 14 13 11 10 9 8 8 7 7 7 7 7 6 6 5 5 6 8 9 11 12 11 9 7 7 6 6 6 6 6 6 4 4
6 1 4 3 3 4 4 5 5 6 6 7 10 11 10 9 10 11 8 10 9 2 7 7 8 7 6 9 7 8 16 26 30 33 33 31 30 30 31 31 31 31 30 30 28 26 24 23 22 21 20 20 20 20 19 19 19 19 18 17 17 16 15 15 14 12 11 9 9 8 8 8 8 8 8 8 7 8 7 6 6 8 10 11 12 11 9 7 6 5 5 5 4 4 4 4 2
5 2 2 3 4 4 4 6 6 6 5 8 14 8 7 10 9 9 9 6 2 4 6 5 5 4 11 12 10 19 26 31 34 36 35 32 31 30 29 30 30 30 30 30 29 27 26 26 24 22 21 21 20 20 20 19 18 17 17 16 16 15 15 14 13 11 10 9 8 8 8 8 9 9 9 9 9 9 9 8 6 6 9 11 12 11 8 6 5 4 4 4 3 3 3 3 2
3 3 4 4 5 6 5 6 6 6 6 12 13 5 7 11 6 5 4 2 6 4 1 2 2 3 12 9 16 32 32 35 38 37 34 30 29 27 25 26 27 27 26 27 28 27 27 27 25 24 23 22 21 21 20 19 18 17 16 15 15 15 14 13 12 11 10 9 8 9 9 9 9 9 9 10 10 10 10 10 8 7 7 9 11 10 8 6 4 2 2 2 2 2 2 2 1
3 4 5 7 6 7 7 8 7 5 6 12 9 5 10 10 6 3 5 5 4 5 4 4 4 4 7 13 27 36 34 37 38 35 30 26 25 23 21 22 24 24 24 25 25 26 27 27 25 24 23 22 22 21 20 20 18 18 16 16 16 15 14 13 12 11 10 8 8 7 7 8 8 8 9 10 10 11 11 11 10 10 7 6 7 8 7 5 2 0 2 3 3 4 4 4 5
6 4 6 8 7 7 7 8 7 5 8 11 6 6 8 7 6 1 1 5 3 5 4 6 8 8 10 18 29 31 31 33 32 31 27 23 23 21 20 19 20 22 22 23 23 25 26 26 25 24 23 22 22 21 20 20 19 19 17 17 16 16 14 13 12 11 9 8 7 7 6 6 6 7 7 8 9 10 10 10 10 11 10 7 5 5 4 2 1 3 3 4 5 5 6 6 7
6 5 7 9 7 6 7 8 9 8 9 11 8 7 6 6 4 2 2 2 2 3 3 5 7 10 13 17 24 27 28 27 27 27 23 21 21 21 20 19 20 21 22 24 24 23 23 24 23 22 21 21 21 21 21 20 20 19 18 17 17 17 15 13 12 10 8 7 7 7 5 4 4 4 5 5 5 8 9 9 9 9 9 9 7 6 5 5 4 4 4 5 5 7 8 8 8
4 7 8 6 6 8 10 10 10 10 9 10 7 6 8 6 3 3 4 1 1 5 5 6 11 14 16 16 19 23 23 23 23 23 21 21 21 21 22 22 22 22 23 24 24 23 22 21 22 21 20 21 21 21 21 20 19 19 18 17 17 16 15 13 11 9 8 7 6 6 4 2 3 2 3 3 2 4 6 6 6 7 7 7 7 7 5 4 4 4 5 6 7 8 9 10 10
4 9 8 5 7 9 11 10 10 10 10 10 5 6 8 7 5 2 4 3 5 6 7 10 16 18 19 18 17 17 16 15 17 18 19 19 19 20 21 23 22 21 23 23 23 22 21 20 20 19 18 19 20 20 20 18 18 18 17 17 17 16 14 12 10 9 8 7 5 4 3 3 3 2 1 2 0 3 3 3 3 4 4 4 4 4 3 4 3 3 5 6 7 8 9 10 11
6 7 7 7 8 8 8 10 11 11 12 11 5 4 3 4 6 3 3 2 7 6 6 10 13 15 16 16 13 13 13 12 10 10 15 18 18 17 17 18 19 21 23 22 23 21 20 20 19 18 17 18 19 19 18 17 17 17 16 16 16 15 13 12 10 10 8 6 4 2 3 3 4 3 4 4 3 3 3 2 1 2 1 2 2 2 2 4 4 4 5 6 7 8 9 9 10
9 8 7 8 10 10 8 8 11 11 13 11 3 3 3 4 6 2 6 7 4 4 11 15 14 16 17 15 14 15 15 16 16 16 20 23 23 21 18 18 21 25 25 24 24 23 22 20 19 18 16 17 17 18 18 17 16 16 16 15 15 15 13 12 10 9 7 4 4 4 3 5 4 2 4 5 4 3 2 0 0 1 1 1 1 1 2 4 5 6 7 7 8 8 9 10 11
12 10 8 7 8 10 11 10 11 11 10 7 3 6 6 6 4 3 6 5 10 14 17 18 19 19 17 16 15 15 13 15 20 21 22 20 21 23 21 21 25 28 28 27 25 24 25 22 20 19 16 16 17 18 19 18 17 16 15 15 15 14 13 12 10 9 8 5 6 5 4 6 6 2 2 4 3 2 1 1 1 1 1 2 2 2 3 5 6 8 8 8 8 9 10 11 12
9 11 9 9 9 9 11 13 15 13 8 5 5 8 8 7 5 4 5 8 14 17 17 17 20 18 15 14 13 14 12 13 19 24 22 19 21 21 21 24 26 26 27 25 23 24 25 23 21 20 18 15 16 20 21 19 18 17 16 15 15 15 13 12 10 9 10 8 7 6 5 7 5 3 2 2 3 3 3 3 2 1 1 1 2 3 5 6 7 7 7 7 7 9 10 10 11
5 10 11 12 11 9 9 13 16 13 8 7 7 10 9 7 6 1 2 8 14 17 16 15 17 15 14 13 11 12 12 12 18 25 26 22 23 21 19 21 23 24 25 24 25 27 26 23 22 23 23 21 20 22 22 21 20 18 16 15 15 14 13 13 12 11 12 11 8 7 7 8 7 5 3 3 3 3 4 4 3 2 0 1 2 3 5 6 6 6 6 7 8 9 10 10 11
6 9 10 13 13 12 10 12 12 8 6 8 8 10 7 4 5 7 5 7 14 18 14 13 15 12 12 12 10 10 9 13 18 20 20 18 21 24 23 23 25 25 26 26 27 31 30 25 24 25 26 26 24 23 23 21 20 18 17 15 14 14 13 14 15 13 11 10 9 9 10 9 8 7 5 3 2 1 1 2 1 1 1 2 3 4 5 6 6 6 6 8 8 9 10 11 11
10 9 8 12 13 14 14 12 9 7 5 7 8 6 5 3 5 10 10 8 13 18 14 12 12 10 9 10 9 8 8 13 16 16 19 19 20 25 27 28 30 29 28 29 31 35 34 29 27 26 28 29 25 24 25 23 20 20 18 16 13 13 15 15 15 14 12 10 10 10 11 9 5 4 5 5 5 4 3 3 2 2 2 3 4 4 5 6 6 6 7 8 9 10 11 12 12
8 10 7 7 9 12 13 11 9 8 6 7 7 3 5 4 5 10 11 12 14 15 13 11 10 8 8 8 7 7 8 9 12 16 22 24 24 26 29 31 32 31 31 33 37 39 36 33 29 26 28 29 25 25 27 25 24 23 20 16 15 16 17 16 15 14 12 11 11 11 10 8 4 4 4 4 5 4 4 3 3 3 3 3 3 5 6 6 6 6 8 9 10 11 12 13 14
4 6 5 5 5 6 9 10 10 9 6 9 9 4 6 6 3 8 10 15 16 12 11 10 9 9 8 8 9 8 6 7 12 18 22 26 27 29 31 32 33 34 35 36 39 40 36 33 29 26 27 28 27 28 27 25 25 25 21 18 17 17 16 15 14 13 12 12 11 10 9 8 7 6 5 4 3 3 2 1 1 2 3 3 3 5 5 5 6 7 7 9 10 11 12 13 14
3 4 6 6 4 3 6 10 11 10 6 8 10 5 4 5 4 9 10 13 16 13 9 9 9 9 9 8 9 9 7 9 15 19 22 25 27 30 33 34 35 37 38 37 38 39 36 33 30 29 29 29 31 31 27 25 25 24 21 18 17 16 15 14 14 13 12 11 10 8 8 8 8 7 6 4 4 3 2 1 1 2 3 4 4 4 5 6 7 7 7 9 11 11 12 13 13
3 5 5 4 5 4 5 7 10 13 8 6 9 5 3 5 4 8 8 11 15 13 10 10 10 9 10 9 9 11 10 10 12 17 22 24 26 30 34 36 38 41 41 40 40 40 38 34 31 32 33 33 32 31 28 25 25 23 20 18 16 15 14 14 13 13 13 11 9 7 8 8 7 6 5 4 4 3 3 3 3 3 4 6 6 5 6 6 7 8 8 9 10 10 11 12 12
4 2 4 4 6 6 4 5 8 13 11 7 7 6 4 4 4 7 6 10 14 13 12 12 11 11 10 9 9 11 12 11 9 15 21 23 25 28 32 37 40 43 44 43 42 42 41 36 34 34 34 32 31 29 28 26 25 22 19 18 16 15 14 13 12 12 12 11 9 7 7 6 6 6 5 5 7 7 7 7 6 7 7 8 8 7 7 6 7 8 9 9 9 10 11 13 14
4 3 4 4 6 7 7 5 5 10 13 10 7 5 4 4 5 6 5 8 12 12 11 12 12 12 11 9 9 9 11 10 9 15 21 23 25 27 30 36 40 41 41 39 38 40 42 39 36 35 33 31 29 28 27 25 24 22 20 18 16 14 13 12 12 12 11 10 9 7 5 5 6 6 6 8 10 10 10 10 9 10 9 8 8 9 8 7 7 7 8 8 8 9 12 13 13
6 5 4 5 5 5 6 6 6 8 9 9 8 6 6 6 6 7 5 6 10 10 9 9 10 11 9 9 8 8 10 9 11 16 20 23 25 26 28 31 34 34 32 33 34 36 40 40 37 35 32 31 30 28 27 25 23 21 20 18 15 14 13 12 12 11 11 10 8 7 7 9 11 12 11 11 12 12 12 11 11 10 9 8 9 10 11 10 9 8 9 8 8 9 11 14 12
6 5 5 6 5 4 5 6 7 7 6 7 8 8 8 9 9 8 8 7 9 10 10 9 10 11 9 9 9 8 8 9 12 16 19 20 22 23 24 24 25 25 25 28 31 32 36 38 37 34 32 31 30 29 28 25 24 22 20 18 16 15 14 14 13 11 11 10 11 12 14 15 15 15 14 13 13 12 12 11 10 10 8 9 10 12 11 11 10 9 8 8 9 10 13 16 14
7 5 4 6 6 5 5 5 7 7 6 5 6 8 8 9 8 7 10 11 11 13 13 11 12 10 8 9 9 8 7 9 12 14 16 17 18 21 22 22 23 23 25 28 30 31 34 35 35 34 32 30 29 28 27 25 24 22 21 20 18 17 15 14 13 13 14 15 16 17 18 17 16 15 13 12 12 11 11 10 10 10 9 9 10 10 9 9 10 10 9 8 9 11 13 16 17
8 6 4 5 5 3 4 5 6 4 4 5 6 8 7 6 5 6 8 9 9 12 14 15 15 12 10 10 9 9 10 11 11 10 14 17 18 21 22 22 22 22 24 26 28 31 32 32 33 32 31 30 28 27 26 24 22 21 21 20 19 18 16 15 16 17 18 19 19 19 18 16 14 13 12 10 10 10 9 9 9 9 9 9 8 8 9 10 11 11 11 10 8 10 12 14 18
6 5 4 4 4 4 4 6 6 4 4 4 6 6 3 3 4 3 2 2 3 3 5 8 10 11 12 11 10 11 13 13 12 10 12 16 18 19 21 21 20 20 21 23 27 29 29 30 31 31 30 28 27 26 24 23 21 19 20 20 20 19 20 21 21 21 20 20 18 17 15 13 11 11 11 9 10 10 9 9 9 9 9 9 8 9 11 11 11 11 11 12 11 10 12 13 15
7 6 6 4 4 5 4 5 6 5 3 4 8 6 2 2 4 1 2 5 5 3 5 5 4 6 8 10 10 12 13 13 13 12 11 14 15 16 18 19 19 18 19 23 26 26 26 28 29 29 28 27 26 25 24 23 21 21 21 21 21 22 23 23 23 22 20 19 18 16 13 11 10 10 10 9 9 9 9 9 9 9 10 9 9 10 11 11 11 12 12 12 13 12 12 12 13
7 7 6 6 5 5 6 3 2 3 3 3 8 5 0 1 1 2 2 2 3 2 6 7 5 7 9 10 11 12 12 12 12 12 11 13 15 17 18 19 19 18 19 22 23 23 25 27 27 27 26 25 24 23 23 23 22 22 23 24 25 24 22 20 22 22 20 19 18 16 14 11 9 9 9 8 8 8 9 9 9 9 9 10 10 9 10 10 11 13 12 12 14 13 11 13 15
6 5 8 8 7 7 7 2 3 4 5 6 9 6 3 1 4 6 5 6 6 5 7 7 7 10 11 11 12 13 13 11 10 11 12 13 16 18 18 19 20 19 20 21 20 22 25 26 25 25 24 24 23 22 22 22 23 24 24 26 27 25 21 20 21 22 21 20 18 15 13 11 9 9 9 8 8 8 8 8 8 9 10 10 10 9 11 12 12 13 13 13 14 13 13 17 18
4 5 9 10 10 11 8 3 3 4 4 5 9 6 4 4 7 7 5 6 6 6 7 9 9 11 12 12 13 13 13 12 11 11 12 12 14 17 18 19 20 20 21 21 21 23 25 25 25 24 24 24 23 22 21 22 24 24 25 26 25 24 23 23 23 23 21 19 18 15 13 12 9 8 8 8 8 8 8 8 8 8 10 10 10 11 13 12 12 13 13 13 15 16 16 18 19
5 5 7 7 9 9 6 4 4 4 2 4 6 5 5 4 4 4 4 7 8 9 11 12 13 14 14 14 14 12 12 13 12 11 11 12 14 17 19 20 20 21 22 22 22 23 24 24 24 24 23 22 22 22 21 21 22 24 25 26 24 23 25 26 24 23 21 19 18 16 14 13 10 9 8 7 8 9 9 9 10 10 11 12 12 13 13 13 14 14 15 17 18 20 19 19 20
6 6 5 3 4 5 4 5 5 3 2 5 7 6 5 2 3 5 5 7 10 11 11 12 13 14 13 13 15 13 11 12 12 11 11 13 17 18 19 21 21 21 21 22 22 23 23 23 23 23 22 21 21 22 21 20 21 23 26 27 26 26 26 25 24 23 20 19 19 17 15 14 12 11 11 10 10 10 10 11 13 14 15 15 14 14 14 15 16 16 17 19 20 21 21 21 21
6 8 6 3 2 1 2 4 4 4 4 6 10 9 6 4 6 7 8 11 15 13 10 11 13 15 14 13 13 12 11 11 11 11 11 14 19 20 21 21 20 20 21 21 22 22 22 22 22 22 21 20 21 20 20 19 20 24 27 27 28 28 27 26 25 23 21 20 20 19 17 15 14 13 13 12 11 11 12 14 16 16 17 16 16 15 15 16 17 17 18 19 19 19 20 21 20
7 7 5 2 3 2 1 2 2 5 6 6 9 9 6 5 7 9 11 13 14 15 14 16 18 18 16 13 13 12 11 12 12 11 11 12 15 18 21 20 19 21 21 20 21 22 21 21 22 22 20 20 19 18 18 19 21 25 27 27 28 28 27 26 25 24 22 22 22 20 18 17 16 15 14 14 13 13 14 16 17 17 17 16 16 16 16 16 17 18 19 19 18 18 19 20 21
8 7 5 4 1 1 3 3 3 5 5 6 7 10 6 5 7 14 18 14 12 16 18 20 21 19 17 14 14 12 10 12 12 11 10 10 11 14 18 19 19 21 22 21 22 22 22 22 23 23 20 19 19 17 18 19 22 25 26 26 27 27 26 25 24 24 23 22 21 19 18 17 17 16 16 15 15 15 15 16 17 17 17 17 16 16 16 17 18 19 20 20 20 20 20 21 23
9 7 6 6 4 4 4 4 2 2 5 7 6 10 6 3 4 14 21 19 17 17 14 15 19 19 17 15 14 12 11 12 11 11 11 10 10 14 17 20 19 21 22 22 22 23 23 22 23 23 21 20 20 19 19 21 23 24 25 26 26 26 25 24 24 23 22 21 19 18 16 16 16 16 16 16 16 16 17 17 17 17 17 15 15 16 18 19 19 20 20 21 22 21 21 22 23
8 5 6 5 5 5 4 3 4 4 5 5 3 5 5 4 3 11 20 18 12 10 7 9 10 11 13 12 13 13 12 11 10 10 11 10 13 16 18 20 20 21 23 23 23 23 23 22 24 25 23 23 23 22 22 23 24 24 25 25 25 25 25 24 23 23 21 20 18 17 16 14 15 16 15 15 16 16 17 17 18 19 19 18 19 20 20 19 18 18 20 22 23 21 21 22 22
7 4 6 5 5 6 2 3 6 5 2 3 2 3 4 5 1 1 10 10 9 11 10 11 10 9 11 11 12 12 11 11 11 11 11 11 14 17 18 20 20 22 24 23 23 24 24 24 26 27 26 26 26 25 25 25 25 25 25 25 25 25 24 24 24 23 21 19 18 17 15 15 16 16 16 16 16 16 17 18 19 21 22 22 22 20 19 18 18 19 20 22 23 21 20 21 21
5 5 5 6 6 7 4 3 1 4 4 4 2 1 1 1 5 6 9 12 11 13 13 13 12 12 12 11 11 11 11 11 11 10 11 12 14 16 18 20 21 22 23 23 24 26 26 27 28 29 28 27 27 27 27 27 27 26 26 25 25 25 25 25 24 23 21 18 16 16 17 19 19 17 16 16 16 16 17 18 20 20 20 21 21 20 19 20 20 22 21 22 21 20 20 22 22
6 6 6 4 5 3 4 3 1 4 4 4 1 3 2 2 2 3 9 13 10 13 14 13 12 13 12 10 10 11 12 12 11 10 11 11 13 16 18 20 22 23 23 24 26 28 28 28 29 30 28 26 27 27 27 27 26 26 25 25 25 24 24 24 23 22 20 17 17 18 19 19 18 17 18 17 17 17 17 19 20 20 20 20 20 20 20 20 20 21 21 21 20 19 21 23 23
5 6 7 5 5 3 1 3 2 3 4 3 3 2 3 3 4 5 11 14 13 13 13 14 14 14 13 11 11 12 13 12 10 10 10 10 13 17 19 21 22 23 24 26 28 28 28 28 28 29 27 26 26 26 26 25 25 25 24 23 23 23 23 22 21 20 19 19 20 20 19 18 18 18 18 17 17 17 18 19 20 20 21 21 21 21 20 19 20 21 21 21 20 20 23 24 23
4 5 6 4 4 4 3 3 4 4 4 3 2 1 2 3 7 12 15 15 16 16 14 15 16 15 13 11 12 13 13 12 10 11 10 10 13 18 22 23 23 25 26 27 28 28 28 27 27 27 26 25 25 24 25 24 23 23 22 21 21 21 21 20 20 20 21 23 22 20 19 20 20 19 17 17 16 16 18 19 20 21 22 22 22 22 21 20 21 21 21 21 21 22 24 25 24
5 4 4 4 3 2 2 2 3 4 4 3 2 1 4 5 7 15 18 18 19 20 18 16 15 15 14 13 13 13 13 12 11 11 11 11 15 19 23 24 24 25 26 26 27 28 28 27 26 26 26 25 24 23 23 24 23 22 21 21 21 21 21 21 22 23 24 24 22 21 22 22 21 19 17 16 16 16 18 20 21 22 22 22 23 23 22 21 21 22 21 21 22 23 25 24 24
6 4 3 5 5 3 3 2 2 2 4 5 5 3 6 5 6 14 19 19 20 21 21 18 17 18 17 15 15 16 15 13 12 13 12 12 15 18 23 25 24 25 25 25 27 27 27 27 26 25 25 24 23 23 23 23 22 22 22 23 23 23 23 24 24 24 25 24 23 23 23 21 20 19 16 15 15 16 19 21 22 23 23 23 23 23 22 21 21 21 22 23 24 25 25 24 24
Wind_Direction
322 327 335 331 324 328 338 67 28 323 73 308 265 302 275 245 278 312 319 304 327 327 338 46 68 103 107 116 156 129 62 151 168 149 202 212 148 155 163 164 160 158 156 155 155 156 156 154 152 150 148 145 145 145 144 143 141 139 136 136 136 133 130 126 124 121 119 119 118 118 117 117 116 116 113 111 110 108 107 105 105 102 101 99 97 93 87 84 78 70 64 60 61 63 71 83 90
326 329 335 333 333 348 318 75 64 322 34 310 278 262 272 301 301 306 297 306 17 191 71 85 84 84 97 114 131 78 40 18 105 132 99 133 137 153 163 162 160 159 157 156 156 156 156 155 153 151 148 146 146 145 145 145 143 140 139 138 137 136 133 129 127 123 121 120 120 120 119 120 119 119 117 114 113 111 109 106 105 102 100 97 93 91 87 85 79 70 61 56 58 68 85 95 99
330 332 339 346 356 45 29 37 81 274 359 266 273 255 280 303 286 291 283 293 359 179 111 107 99 90 107 88 36 89 115 6 108 105 111 140 140 157 162 162 162 160 158 157 157 157 156 155 153 151 149 147 146 146 146 146 144 141 141 140 140 139 135 132 129 125 123 121 121 121 121 121 121 121 119 117 114 111 108 105 102 101 98 95 94 91 86 83 81 73 63 57 63 87 104 106 106
327 331 339 356 16 26 60 44 173 172 229 247 267 265 272 279 280 296 288 293 301 262 39 112 67 349 148 123 124 99 132 126 137 125 138 164 162 159 159 159 160 158 158 157 157 157 156 154 153 151 149 148 147 147 147 147 146 143 143 142 143 140 138 135 130 126 125 124 123 123 124 124 124 123 122 120 116 115 114 111 110 110 107 105 107 105 100 94 85 75 66 60 73 104 117 116 115
319 328 335 28 81 1 88 98 153 151 208 221 246 266 268 269 284 297 294 299 305 302 302 280 348 333 356 120 167 149 140 117 154 151 139 164 161 156 156 155 157 156 156 157 157 157 155 154 153 150 149 150 149 148 149 149 147 145 144 143 144 142 140 136 130 128 128 127 126 127 127 128 128 126 127 126 125 125 123 123 124 127 125 123 125 125 117 104 88 79 72 65 82 114 126 124 122
318 348 12 83 125 182 119 209 225 234 220 191 237 268 272 276 285 291 295 296 297 295 256 166 155 84 9 328 351 162 159 127 152 162 145 151 157 156 155 154 154 154 155 156 157 155 153 154 153 150 149 150 149 149 151 150 148 146 144 144 144 143 141 135 131 131 131 129 129 131 131 131 130 130 134 133 133 134 133 134 133 134 136 128 121 121 110 101 90 85 79 71 92 121 131 130 126
342 8 46 67 350 80 124 205 212 242 234 192 235 263 267 277 280 285 291 292 299 299 79 123 137 108 335 316 56 310 345 141 147 156 152 150 154 155 153 154 152 152 153 155 156 153 153 156 154 150 149 149 149 150 152 150 148 145 144 144 143 143 139 135 134 135 134 132 132 132 133 134 132 133 140 142 144 145 146 145 138 139 142 127 115 116 110 102 94 89 83 77 99 126 136 134 129
14 17 66 93 15 349 137 216 215 225 244 214 237 252 258 269 274 281 279 280 289 288 2 153 159 102 275 1 98 317 35 132 142 147 150 149 153 153 153 153 151 150 152 155 154 151 153 156 154 150 148 148 149 151 152 150 147 145 144 144 143 141 138 137 137 138 137 135 134 132 132 134 133 137 145 152 155 156 157 156 146 143 139 126 121 120 113 104 97 91 82 80 101 128 140 139 135
82 132 49 100 169 266 204 237 240 227 256 248 248 254 257 263 270 275 271 273 271 275 264 185 193 132 197 41 121 313 71 127 136 142 148 150 153 152 152 154 152 149 150 152 150 151 154 156 153 150 149 149 150 152 151 149 146 144 144 144 143 140 140 141 140 141 140 137 134 131 131 132 135 141 152 161 164 162 165 169 153 153 144 130 131 126 117 107 101 93 81 79 99 127 142 143 139
69 202 125 131 155 229 243 247 247 234 249 239 240 251 254 259 265 267 267 270 263 270 265 173 136 129 145 107 148 305 121 132 132 139 149 151 150 149 151 155 154 150 149 149 149 151 151 152 152 151 151 149 151 152 150 148 145 144 144 144 143 142 142 143 144 143 140 135 132 130 129 128 131 137 145 156 163 163 167 170 155 154 149 140 142 136 122 112 104 95 84 81 98 126 143 146 141
75 268 135 170 184 217 227 232 243 242 249 245 246 249 253 257 261 267 266 266 266 252 217 142 111 132 117 119 233 124 135 134 134 141 148 149 147 149 150 151 152 150 149 148 147 148 146 148 151 151 151 150 151 151 149 147 145 145 145 145 144 144 146 147 146 142 138 134 130 126 122 122 124 127 132 140 148 152 156 159 152 149 148 148 149 142 129 119 110 99 87 82 95 123 143 149 146
131 209 123 176 199 208 214 221 239 246 255 260 258 250 252 257 257 262 263 268 269 202 184 187 153 145 111 142 48 127 137 136 139 143 147 148 146 147 147 147 149 148 147 146 144 144 144 147 149 150 151 150 150 149 148 145 144 145 146 146 146 148 150 150 145 140 137 132 126 118 113 117 119 119 121 123 127 130 136 145 148 148 149 153 152 147 137 126 116 106 94 87 91 116 141 152 152
166 181 137 191 197 191 212 217 235 250 259 248 248 251 246 256 256 251 260 269 265 237 210 184 159 143 119 154 109 132 143 142 141 142 146 146 144 144 144 145 146 145 144 143 142 142 144 145 146 148 150 148 146 146 145 145 145 145 146 148 149 151 152 148 143 140 136 128 122 117 118 120 120 117 112 110 108 106 114 130 142 148 152 157 158 152 144 133 123 112 103 95 93 104 128 152 161
189 177 150 210 214 185 202 203 221 236 253 247 246 255 244 247 254 251 256 263 263 247 199 162 150 126 119 147 126 161 154 146 142 141 143 140 140 140 141 144 145 145 144 145 143 142 143 142 143 145 146 144 142 144 143 144 145 146 147 149 152 153 151 146 142 139 133 128 126 125 126 125 122 116 108 102 94 90 93 115 135 144 153 159 161 157 150 141 128 115 106 98 95 95 103 124 164
186 176 144 201 221 192 206 197 198 216 245 255 247 252 253 258 261 262 241 242 271 207 119 127 152 117 152 173 171 184 156 143 139 138 138 136 138 138 140 142 143 144 144 145 144 143 142 141 143 144 145 143 142 144 144 146 148 149 150 151 153 152 149 145 143 139 134 132 128 127 125 120 115 107 98 93 88 84 81 95 122 139 151 158 163 163 157 146 131 116 105 94 91 90 91 91 97
177 160 170 209 213 203 213 196 189 218 243 248 247 255 274 273 258 254 234 198 110 138 121 143 202 132 169 189 167 158 147 138 135 136 134 132 133 133 137 139 140 142 142 143 141 142 143 143 146 148 148 146 147 147 148 151 152 152 152 154 154 151 149 147 145 142 136 127 120 123 117 106 100 94 87 84 86 82 77 79 95 126 147 157 165 168 161 151 140 122 105 93 85 79 81 88 94
161 168 222 224 208 207 200 187 188 202 228 247 255 264 258 271 267 267 280 114 114 148 55 135 194 129 171 181 139 143 140 135 134 133 131 130 130 130 133 136 137 138 140 141 140 142 145 148 151 152 152 151 152 151 153 154 155 156 154 156 155 152 150 150 151 148 140 125 118 121 114 102 93 88 80 75 80 80 75 70 74 95 130 154 165 170 166 161 155 138 99 73 51 28 23 18 356
179 177 214 222 210 205 187 188 200 182 214 243 254 249 237 254 260 277 339 349 79 98 31 56 52 52 138 125 130 138 135 135 135 134 133 134 133 133 135 137 137 137 138 139 140 145 148 151 153 156 156 156 156 154 156 156 159 160 157 158 156 154 154 158 161 155 148 135 130 128 118 109 96 87 77 68 69 77 78 72 71 76 91 127 156 167 170 170 166 52 1 353 346 338 334 327 329
198 185 204 221 208 203 196 198 213 197 223 247 269 268 241 226 223 190 330 299 13 72 50 62 69 72 99 117 132 134 131 135 136 136 137 138 139 138 138 137 135 134 137 138 142 147 150 152 155 158 158 160 160 158 159 159 162 162 163 163 157 158 162 167 168 162 157 146 142 138 127 115 101 88 79 70 63 68 74 76 78 75 76 87 117 151 155 136 70 17 359 345 342 338 332 324 324
205 195 214 224 201 209 221 213 226 225 235 257 276 278 250 216 203 123 179 244 75 140 134 97 111 121 123 131 136 132 132 136 136 136 135 136 137 135 133 131 133 135 139 141 144 148 150 152 155 158 159 163 164 162 164 165 165 165 167 165 159 161 168 172 172 168 162 153 147 143 138 122 114 91 76 78 58 60 65 69 82 82 77 78 88 105 106 88 63 44 23 359 348 338 332 331 323
201 207 219 216 183 212 228 217 231 243 247 254 270 299 295 284 254 168 161 155 249 214 206 166 150 141 138 142 142 136 135 135 135 135 133 133 133 132 133 135 139 141 142 141 142 145 147 152 155 158 163 167 168 167 169 170 169 169 169 166 162 165 170 174 172 166 160 158 157 150 147 136 141 105 79 100 47 49 60 57 72 79 74 74 81 92 92 62 36 28 11 354 346 334 327 330 326
231 226 225 207 184 211 226 220 232 243 254 258 262 284 291 308 290 220 133 169 230 220 202 170 153 148 148 146 144 133 123 125 130 133 134 131 126 126 131 133 134 135 134 134 137 141 147 154 158 162 168 173 174 173 172 173 172 172 170 167 166 167 171 175 170 161 155 157 164 165 174 166 159 167 171 179 321 5 23 31 47 58 57 54 60 74 59 22 3 345 349 349 346 336 330 332 331
238 241 226 216 208 215 219 218 228 234 249 252 234 246 277 333 299 323 43 242 249 241 157 137 138 135 129 125 122 107 86 79 74 78 99 97 88 90 99 104 114 126 129 132 136 140 149 156 160 166 173 179 181 178 175 174 174 174 172 169 169 169 172 173 167 161 157 161 165 163 185 178 158 178 227 228 250 310 328 328 1 30 45 42 35 35 13 9 2 348 347 346 343 337 333 333 332
229 241 233 227 224 227 227 221 226 228 239 238 226 310 311 309 292 355 347 312 323 34 85 95 95 89 91 92 91 87 76 73 60 44 66 82 83 86 89 93 113 129 132 137 142 145 153 157 159 168 178 185 187 183 181 177 176 177 176 174 170 168 170 170 168 165 166 179 177 164 181 187 176 202 247 238 246 289 315 230 110 31 77 92 41 341 342 351 344 343 342 336 336 335 334 331 328
229 233 235 236 233 231 234 240 241 235 237 239 261 286 261 238 255 344 340 14 72 83 90 93 93 88 88 89 88 92 90 93 87 71 71 86 102 112 118 123 131 138 140 144 148 149 155 159 161 167 177 188 191 187 186 184 180 179 179 176 170 169 169 168 169 174 186 197 183 182 197 189 187 239 248 222 236 260 245 170 177 8 74 89 49 1 339 341 336 337 340 339 337 336 338 336 330
222 225 235 238 240 234 228 235 243 243 240 238 249 260 252 228 222 342 9 94 96 93 96 98 100 97 99 102 106 114 113 109 108 108 113 121 125 127 131 134 137 140 140 141 146 149 155 163 163 164 166 175 192 193 190 188 181 179 181 177 173 174 173 173 175 182 194 194 179 185 201 194 200 248 242 231 256 253 231 211 221 225 71 45 39 9 340 337 334 335 338 339 337 336 339 337 332
209 217 232 237 242 243 228 228 235 241 244 225 231 248 249 232 206 244 36 110 103 95 97 102 105 109 119 124 123 122 118 122 130 132 136 139 136 134 133 132 132 134 134 135 145 151 156 166 168 166 159 157 174 190 192 189 182 179 181 180 182 186 184 184 186 187 192 196 194 192 198 204 214 225 229 253 259 247 236 230 236 220 191 14 24 359 345 339 328 328 331 329 331 334 334 333 331
236 220 229 237 241 249 238 234 228 223 240 211 208 239 233 214 200 180 156 122 110 107 104 101 106 117 129 127 121 121 122 135 141 135 134 143 145 141 137 135 133 137 142 143 151 155 158 169 178 175 167 162 163 175 187 187 183 182 186 190 194 199 198 195 195 192 187 192 200 197 199 209 217 217 206 202 189 159 206 212 205 169 135 39 17 350 344 341 334 338 343 340 337 334 330 330 332
237 230 228 235 239 245 240 241 228 189 214 190 175 233 232 197 188 161 143 126 114 110 107 106 114 124 127 126 123 120 128 142 142 132 135 145 150 143 138 140 142 147 153 152 152 152 157 171 183 180 176 174 163 167 185 189 188 191 193 192 186 182 183 184 185 184 180 184 196 202 207 212 215 209 185 152 133 116 111 135 134 116 95 42 5 344 345 347 350 355 353 350 347 343 338 336 335
228 229 224 234 237 243 237 236 232 209 206 165 153 225 251 237 179 153 140 129 118 112 121 127 125 126 126 129 123 118 131 144 138 136 142 146 148 146 142 146 151 153 157 160 154 150 157 170 181 183 181 181 172 173 188 193 195 194 187 179 169 165 166 167 168 172 180 190 204 211 214 212 184 164 161 134 125 120 113 120 118 101 75 49 8 351 358 1 360 357 354 351 349 347 342 338 334
211 220 216 211 218 242 236 227 222 221 210 152 157 211 241 247 187 163 151 132 124 119 129 131 129 132 133 136 132 132 135 135 136 140 145 146 148 149 147 151 156 156 157 161 155 151 158 167 174 180 179 180 178 180 184 184 186 184 178 174 170 170 170 170 171 175 186 201 214 216 213 201 173 165 164 146 133 119 111 112 110 113 97 69 21 358 2 6 357 353 357 351 344 341 336 333 333
197 199 215 201 200 239 232 225 210 210 212 152 165 202 237 251 219 181 162 133 128 127 134 134 135 137 136 141 139 136 133 133 140 143 146 149 151 152 153 155 158 158 158 159 155 152 158 164 169 174 174 174 173 176 177 173 175 176 176 176 175 178 179 181 183 186 197 210 218 213 201 185 171 174 175 162 157 143 118 105 115 136 119 74 36 16 20 19 7 4 5 354 343 338 335 335 337
227 192 202 185 183 217 234 235 214 205 209 174 177 184 222 254 231 191 164 133 128 128 139 142 141 143 141 143 142 142 142 141 146 150 152 154 157 158 159 159 158 158 158 158 157 155 157 162 170 173 173 173 171 174 175 173 174 175 175 176 179 181 185 188 189 193 202 212 214 202 190 182 179 183 170 141 139 134 108 106 101 92 88 73 60 56 50 34 21 15 11 5 357 349 346 348 347
250 184 188 194 175 186 215 242 224 205 206 206 181 163 193 217 194 185 165 138 134 135 148 151 148 147 145 145 147 152 150 149 157 160 158 159 162 164 162 161 160 159 160 161 161 158 156 162 170 171 171 171 171 173 174 173 175 175 177 180 182 184 189 191 192 197 200 204 205 194 191 185 180 179 154 114 110 105 96 100 98 86 85 83 77 72 63 52 46 34 23 23 21 19 14 6 354
199 181 176 200 183 179 190 214 222 195 201 208 178 153 185 192 175 167 155 148 143 144 151 151 149 149 151 154 156 160 156 155 162 163 161 160 163 165 164 164 163 162 164 166 164 158 157 162 167 168 168 168 169 172 173 174 176 177 177 179 181 184 187 186 191 195 193 197 197 189 190 171 152 143 124 110 108 105 102 101 98 92 91 92 86 78 68 60 61 47 33 30 32 40 31 15 1
177 188 180 189 188 193 194 208 217 176 183 206 182 160 170 177 183 162 142 140 135 138 144 145 150 153 156 161 161 162 160 160 161 161 159 159 162 165 167 168 166 167 169 166 161 156 156 159 162 164 165 167 169 171 173 174 175 175 175 175 174 175 179 179 183 186 185 186 173 149 138 130 122 116 113 112 112 111 108 103 100 97 94 95 85 74 65 57 56 47 40 34 30 42 30 17 8
204 194 194 199 192 217 212 208 220 167 153 214 189 159 169 178 186 167 139 126 130 141 148 151 158 162 165 164 159 157 155 154 153 154 155 156 161 164 167 168 167 169 169 162 157 155 155 158 160 160 164 170 173 174 175 177 176 172 169 170 168 167 173 174 169 167 165 154 137 124 119 116 113 111 113 115 115 112 108 105 102 98 94 92 83 75 68 60 54 47 45 39 35 40 31 23 15
238 223 206 212 195 217 226 212 226 178 151 226 176 143 177 187 183 166 143 145 157 159 157 163 168 168 170 160 152 147 144 145 144 146 151 154 156 161 165 168 169 168 165 161 158 157 158 160 161 160 165 172 176 178 178 179 181 176 169 167 165 163 166 168 158 146 138 130 123 118 115 114 113 111 113 115 111 107 106 103 100 97 94 92 86 78 68 58 50 42 40 39 43 45 40 32 26
238 231 210 224 191 196 245 238 241 186 161 224 174 150 184 186 160 162 160 159 173 173 167 169 168 166 168 163 154 146 146 149 149 144 149 153 155 159 165 170 172 169 163 162 161 160 160 161 162 163 167 172 176 180 180 181 181 178 173 167 164 159 151 147 139 132 130 124 118 117 116 116 115 112 111 112 105 101 101 98 96 93 88 84 81 72 60 54 47 42 42 40 43 43 42 39 37
235 219 195 235 200 176 216 237 246 208 174 191 156 137 148 100 87 140 195 93 122 158 152 156 161 161 165 162 156 155 155 155 154 151 152 156 155 157 164 171 174 170 164 163 163 163 162 161 163 166 169 172 174 177 179 180 175 169 168 165 160 149 136 130 127 126 127 124 119 118 118 116 116 111 108 110 106 101 98 94 91 85 80 74 70 66 58 52 47 45 43 41 42 42 42 41 42
235 222 189 218 226 204 205 223 236 216 181 134 110 86 55 67 78 122 333 34 72 84 116 131 134 136 148 152 157 165 162 157 157 157 157 155 153 156 162 170 174 171 168 168 167 164 160 160 165 169 170 170 172 174 175 176 170 161 156 151 145 137 131 128 125 125 125 123 119 116 114 115 115 109 106 106 101 96 92 89 87 82 79 72 67 66 61 56 51 48 44 42 46 49 48 44 45
242 231 189 199 219 232 232 226 209 181 219 181 124 107 236 332 35 213 236 103 114 135 146 151 141 142 154 157 162 168 163 159 157 155 155 153 153 156 160 169 174 171 172 173 168 164 160 161 166 170 169 169 171 173 173 173 171 164 156 149 144 139 136 133 130 128 126 123 119 115 112 110 108 102 97 95 93 92 89 85 84 82 78 72 69 67 62 57 53 51 46 44 49 49 49 49 46
237 204 174 199 218 231 230 179 105 174 225 211 175 168 165 232 256 224 200 164 160 164 161 163 156 160 168 165 165 168 163 159 153 154 157 156 157 158 160 169 172 169 172 171 165 164 163 162 165 167 167 171 173 172 171 172 171 167 160 155 150 145 140 137 136 133 129 125 121 118 112 104 100 97 92 89 88 88 87 83 81 82 79 74 70 68 66 62 59 55 47 46 50 48 51 57 51
222 164 164 196 217 233 231 144 139 217 255 224 197 167 123 189 222 209 183 154 157 173 174 172 170 170 170 169 172 169 164 161 156 157 160 158 160 158 159 165 168 168 168 167 165 166 166 164 165 165 166 172 176 173 172 171 169 165 160 155 150 146 142 138 138 134 131 128 122 118 114 107 102 98 94 89 84 83 85 85 85 85 83 78 76 74 72 68 61 56 52 53 56 55 57 61 58
225 180 175 191 205 228 226 169 206 238 276 245 207 125 114 193 190 166 168 163 174 192 190 182 179 176 172 171 175 170 163 163 158 156 158 157 158 158 158 160 164 167 166 166 168 167 165 165 165 164 166 172 176 175 173 169 168 164 158 153 147 143 142 140 139 135 132 130 123 119 115 110 102 96 96 92 88 87 83 86 90 88 86 85 84 80 75 67 62 64 67 66 66 63 61 62 63
229 216 210 208 207 225 208 187 215 223 198 235 218 159 124 154 174 167 173 186 196 198 191 187 182 177 175 174 174 170 162 161 160 158 156 157 159 158 156 156 160 164 163 166 168 165 162 164 166 166 167 172 174 176 175 168 165 163 158 153 146 143 142 140 139 136 133 130 123 117 112 105 97 94 97 95 90 86 81 86 89 88 88 88 87 84 75 68 69 76 78 75 73 68 64 63 62
215 228 230 260 282 268 217 199 191 202 228 239 216 186 136 140 203 194 184 196 195 186 182 183 181 178 180 178 174 169 161 159 162 160 156 154 155 153 153 155 157 158 160 163 164 162 161 163 166 166 167 172 172 175 176 169 163 161 158 153 149 148 147 145 141 136 133 129 121 115 109 101 98 99 98 91 84 84 85 89 89 89 91 89 87 83 75 74 79 83 82 79 76 72 66 63 61
201 221 210 224 321 353 274 262 181 197 240 249 206 182 163 174 200 203 211 213 190 178 180 179 179 182 181 177 172 166 159 159 161 159 154 151 150 151 155 157 154 153 156 156 158 162 162 162 164 162 165 170 171 172 172 168 162 158 154 152 151 153 153 148 143 138 136 131 123 117 111 105 102 99 92 85 84 89 91 90 89 90 91 89 88 83 78 83 87 85 82 77 74 73 70 67 65
202 208 179 167 201 203 214 228 215 204 238 252 185 165 193 220 198 196 206 212 191 187 188 177 175 178 177 172 168 165 159 159 161 158 157 156 154 155 155 155 152 152 154 153 157 162 162 160 159 156 158 164 167 168 167 165 161 156 153 152 153 154 153 148 143 140 137 132 126 119 113 109 104 97 89 85 87 91 91 91 90 90 91 90 88 82 81 88 88 84 80 74 72 73 71 69 68
199 198 169 167 171 175 208 219 219 203 230 249 189 162 195 245 210 197 199 203 195 192 190 176 173 173 170 166 162 164 163 161 160 159 161 163 161 157 154 155 154 151 153 155 157 162 161 157 154 150 150 155 158 159 160 159 158 157 156 155 154 153 150 147 144 142 137 132 126 119 113 109 106 101 94 90 92 94 94 95 94 92 91 89 85 83 87 90 88 83 79 75 75 75 72 71 70
203 191 138 161 169 159 196 196 180 201 233 251 187 160 187 182 208 208 202 201 184 163 151 151 160 161 157 156 157 162 163 160 159 160 164 164 159 156 152 154 155 152 153 155 157 159 158 153 149 146 144 148 150 152 154 154 155 157 157 155 154 153 150 146 144 141 137 132 125 117 112 109 111 109 103 99 101 102 101 99 95 90 88 88 89 88 88 86 85 85 83 82 81 78 75 74 70
202 169 133 180 182 151 164 186 176 174 203 251 182 179 204 171 28 261 176 166 131 125 131 138 146 150 151 156 160 162 161 161 160 160 163 161 157 154 150 151 153 152 153 154 155 155 151 148 146 143 142 145 147 150 152 154 155 156 156 156 154 152 149 145 141 138 134 129 123 118 111 109 115 116 111 111 111 109 106 101 96 91 90 90 90 86 82 82 87 90 89 86 82 79 77 73 67
178 173 180 196 166 135 134 195 191 109 145 243 217 159 273 96 20 22 111 126 126 132 140 148 152 154 157 161 161 161 161 161 161 161 158 156 154 150 148 150 152 153 153 153 152 150 148 146 143 140 141 144 147 151 153 154 155 155 154 155 153 151 148 143 139 135 131 126 122 119 115 111 114 117 118 118 115 111 110 106 100 98 97 93 88 84 84 87 90 89 87 84 81 80 76 71 65
160 192 203 182 161 131 102 146 336 74 152 259 295 161 194 92 27 13 106 120 136 142 144 150 151 156 163 166 161 159 160 159 156 154 151 150 150 147 146 150 152 152 151 148 148 148 148 146 143 143 145 147 150 152 153 154 155 153 152 150 149 149 146 142 139 136 133 128 122 119 118 117 118 121 122 121 116 113 112 110 106 103 102 97 90 88 89 90 87 84 82 80 78 78 76 71 65
151 182 188 167 175 215 56 149 174 122 162 269 314 211 197 134 155 156 132 138 151 151 150 155 160 165 168 163 159 156 156 157 153 148 149 149 147 147 147 148 148 147 146 145 145 146 146 145 145 146 148 149 150 152 152 153 154 151 149 147 146 145 143 141 139 136 133 127 122 121 122 124 127 127 124 121 117 114 114 115 111 106 104 100 94 91 90 87 84 82 81 80 78 78 78 73 65
117 153 180 164 145 173 183 171 164 148 168 222 295 303 249 209 171 156 153 155 156 157 163 169 169 169 167 162 160 157 156 158 155 151 153 151 147 149 149 147 145 145 144 143 143 143 143 145 145 147 148 147 147 149 150 150 151 150 148 147 146 144 143 142 140 136 130 124 124 126 127 127 129 128 125 122 118 117 118 119 114 109 105 101 97 94 90 87 86 86 85 82 81 81 79 74 66
144 160 183 164 140 161 162 161 159 139 149 176 185 250 265 246 179 158 159 161 163 168 172 174 171 166 167 166 160 156 157 158 155 154 153 148 146 148 147 144 142 142 142 142 142 141 142 145 146 147 147 146 145 146 147 147 148 148 146 145 146 145 143 140 137 132 127 125 127 129 129 128 128 127 126 124 120 119 122 122 117 111 107 103 100 96 93 92 93 90 86 83 83 83 80 73 66
149 161 191 173 163 141 121 213 258 117 137 165 160 207 265 263 185 166 163 165 173 176 173 172 171 168 167 167 163 160 160 159 156 154 152 147 148 148 144 140 141 141 140 141 140 140 142 145 148 149 148 149 149 148 148 148 148 148 145 143 143 142 140 136 133 130 128 129 130 131 132 131 126 125 126 124 121 122 126 125 119 113 109 106 102 99 97 96 94 88 84 83 82 81 78 73 66
Height
780 781 779 779 776 776 778 779 799 803 803 818 812 808 798 784 784 785 784 775 774 770 761 759 757 756 759 766 770 768 768 772 777 787 789 771 765 768 770 774 778 782 785 787 790 792 794 794 795 795 797 799 801 802 804 805 806 808 809 810 811 812 813 815 815 816 817 818 819 819 820 821 821 822 822 823 823 823 823 823 824 824 824 824 824 824 824 824 824 823 822 822 821 821 820 820 820
780 781 778 779 775 778 784 783 807 814 813 824 814 807 795 783 786 789 784 776 778 771 760 759 759 758 758 760 761 764 769 769 767 771 774 769 770 772 771 773 776 780 783 786 789 791 793 793 794 795 797 799 801 802 804 805 807 808 809 810 811 813 814 815 816 817 818 819 819 820 821 822 822 823 823 823 823 824 824 824 825 825 825 825 825 825 825 825 824 824 823 822 822 821 821 821 821
781 781 778 779 776 779 786 790 809 818 822 828 816 802 792 789 787 784 779 772 773 769 763 761 760 761 762 765 763 767 773 768 764 767 771 771 770 772 772 772 774 778 781 785 788 790 791 793 794 795 797 799 801 802 804 806 807 808 810 811 812 813 814 815 816 818 818 819 820 821 822 823 823 823 824 824 824 824 824 825 825 826 826 826 826 826 826 826 825 824 824 823 823 822 822 822 823
781 781 780 779 781 784 792 801 808 815 823 824 815 800 790 790 783 779 774 766 767 767 767 764 765 761 760 768 764 766 772 768 764 764 768 770 768 770 772 772 774 777 781 784 786 789 791 792 793 795 796 798 801 803 804 806 807 808 810 811 812 813 815 816 817 818 819 820 821 822 823 824 824 824 825 825 825 825 825 825 826 826 826 827 827 827 827 826 826 825 825 824 824 824 824 824 824
781 781 781 781 788 791 796 806 807 812 817 813 810 797 788 786 780 778 771 764 763 764 765 767 771 762 758 763 762 766 767 765 764 761 764 768 769 771 773 773 774 776 780 783 786 789 790 792 794 795 796 799 801 803 804 806 807 808 810 811 813 814 815 816 817 819 820 821 821 823 823 824 825 825 825 825 826 825 826 826 826 826 827 827 827 827 827 827 826 826 826 825 825 825 825 825 825
780 781 780 781 787 789 799 810 809 810 805 800 802 794 786 781 777 776 770 764 760 760 761 764 769 766 767 763 759 761 759 759 760 760 761 766 769 771 774 775 775 777 780 783 786 788 791 793 794 796 797 799 801 803 805 806 807 808 810 811 813 814 816 817 818 819 820 821 822 823 824 825 825 826 826 826 826 826 826 826 826 827 827 827 827 827 827 827 827 827 827 826 826 826 826 826 826
780 782 783 786 789 791 805 813 809 807 797 793 795 789 784 777 774 774 773 770 762 758 759 762 762 767 776 767 762 759 753 755 754 757 759 763 769 772 775 777 776 777 781 784 786 788 791 793 795 796 797 799 801 803 804 806 807 808 810 812 814 815 816 817 818 820 821 822 822 823 824 825 826 826 826 826 826 826 826 826 826 827 827 828 827 828 828 828 828 828 827 827 827 826 827 827 827
781 784 786 792 798 799 807 809 807 805 794 788 786 782 780 774 772 774 775 774 768 761 761 763 759 769 776 768 771 763 754 756 754 758 760 762 767 771 776 778 778 779 782 784 787 790 792 795 796 797 798 800 802 803 805 806 807 809 811 812 814 815 817 818 819 820 821 822 823 824 824 825 826 826 826 826 826 826 826 826 826 827 827 828 828 828 828 829 829 828 828 828 828 828 828 828 828
781 785 788 795 803 805 808 807 805 801 793 787 783 778 776 772 771 773 773 772 768 762 761 761 758 769 774 769 773 765 758 758 758 762 764 765 766 770 775 778 779 779 783 786 789 792 793 796 798 799 800 802 803 804 805 806 808 809 811 813 815 816 817 819 820 821 822 823 823 824 825 826 826 826 826 826 826 826 826 826 826 827 827 828 828 829 829 829 829 829 829 829 829 829 829 829 829
783 786 790 798 804 809 812 809 803 798 790 784 781 776 773 771 769 770 770 769 764 762 760 756 759 768 772 774 774 766 763 760 760 767 768 769 769 771 776 780 781 780 784 787 791 794 796 799 800 802 803 804 805 806 807 808 809 810 812 814 815 817 818 819 820 822 822 823 824 825 825 826 826 826 826 826 826 826 826 826 826 827 828 828 829 829 830 830 830 830 830 829 830 830 830 830 830
788 788 789 800 808 812 812 808 801 795 787 782 779 774 770 768 768 767 765 766 760 761 761 757 765 769 771 776 773 766 764 762 762 768 772 774 774 775 778 782 784 783 785 788 793 797 799 802 804 805 805 807 807 808 809 809 811 812 813 815 816 818 819 820 821 822 823 824 824 825 826 826 826 826 826 826 826 826 826 826 827 827 828 828 829 830 830 830 830 830 830 830 830 831 831 831 831
791 791 791 803 808 806 805 803 799 793 787 784 781 771 766 764 768 767 764 764 758 762 760 757 762 763 773 779 772 767 766 766 765 769 774 777 778 779 781 784 786 786 787 791 795 799 802 804 806 808 809 810 810 811 811 812 813 814 815 816 818 819 820 822 822 823 824 825 825 826 826 826 827 827 827 827 826 826 826 827 827 828 828 829 829 830 830 831 831 831 831 831 831 831 832 832 831
789 790 793 801 799 798 799 800 795 792 790 784 778 767 763 764 765 763 761 761 756 762 757 750 753 757 773 777 770 769 768 769 767 771 775 778 781 782 784 786 788 789 790 793 796 801 804 806 808 811 812 813 813 814 815 815 816 816 818 818 819 820 822 823 823 824 825 825 826 826 826 827 827 827 827 827 827 827 827 827 827 828 828 829 830 830 831 831 831 831 832 832 832 832 832 832 832
784 785 790 796 793 792 794 797 794 795 792 779 772 764 761 762 758 754 757 760 754 752 746 741 745 755 770 775 774 772 768 770 769 772 776 780 783 783 786 788 790 791 793 795 798 802 805 808 810 813 815 816 816 817 818 818 819 819 820 821 822 822 823 824 825 825 826 826 826 826 827 827 828 828 828 828 827 827 827 827 827 828 829 829 830 831 831 832 832 832 832 832 832 833 833 833 833
780 781 786 792 792 791 791 791 790 793 789 776 767 760 760 757 752 752 753 757 752 740 738 742 742 752 767 770 771 768 765 769 769 772 776 781 783 785 787 789 791 792 794 796 798 803 805 809 812 814 816 817 819 819 820 821 821 822 822 823 824 824 825 826 827 827 827 827 827 827 828 828 828 828 828 828 828 828 828 828 828 828 829 830 830 831 832 832 833 833 833 833 833 833 833 834 833
776 779 786 791 791 792 789 785 787 791 785 771 761 757 763 756 749 751 744 744 748 740 740 747 743 747 757 756 753 756 762 767 769 773 777 781 783 786 788 790 792 793 795 797 799 803 806 810 812 815 817 818 819 820 821 822 823 824 824 825 825 826 827 828 828 828 828 828 828 828 829 829 829 829 829 829 829 829 828 829 829 829 829 830 830 831 832 833 833 834 834 834 834 834 834 834 834
773 780 789 791 791 791 785 781 784 785 778 766 758 758 765 759 748 745 737 736 745 745 743 745 743 742 747 747 746 753 762 765 769 773 776 781 783 786 790 792 793 794 797 798 801 804 807 810 812 814 816 818 819 820 821 822 823 824 825 826 827 828 828 829 829 829 829 829 829 829 830 830 830 830 830 830 830 830 829 829 830 830 830 830 831 832 832 833 834 834 834 834 834 834 835 835 834
775 782 789 790 788 783 775 773 773 772 771 764 758 758 761 760 752 743 740 742 745 749 750 746 744 743 744 746 750 756 762 765 768 772 776 779 781 785 790 793 794 796 798 800 803 805 808 810 812 814 816 818 819 820 821 822 824 824 825 827 827 829 829 830 830 830 830 830 830 830 831 830 830 830 830 830 830 830 830 830 830 831 831 831 832 832 833 833 834 835 835 835 835 835 835 835 835
772 777 784 782 776 772 765 765 765 765 766 760 757 755 755 755 749 743 747 751 748 751 756 754 752 750 749 751 756 761 765 768 770 772 775 777 780 784 789 794 796 798 800 802 804 807 809 811 813 815 817 819 820 821 822 823 824 824 826 826 827 829 829 830 831 831 831 831 831 831 831 831 831 831 831 831 831 831 831 831 831 831 832 832 833 833 834 834 835 835 835 835 835 835 835 835 835
768 771 778 772 765 765 761 761 761 759 759 758 758 754 753 750 745 744 750 754 752 753 756 756 759 757 755 755 758 763 767 769 772 774 777 780 783 786 790 795 798 800 802 802 805 808 811 813 815 817 819 821 821 822 823 823 824 825 826 827 827 828 829 830 831 831 831 832 832 832 832 832 832 831 831 831 831 832 831 832 832 832 832 832 833 833 834 835 835 835 835 835 835 835 835 835 835
765 765 769 763 760 763 758 757 757 755 756 757 757 755 754 748 743 745 749 755 757 755 751 749 755 756 756 758 758 763 767 769 773 776 778 782 785 789 792 795 798 800 802 804 807 810 813 815 817 819 821 822 823 823 824 824 825 826 827 827 828 828 830 830 831 831 832 832 832 832 832 832 832 832 831 831 832 832 832 832 832 833 833 833 833 834 834 835 835 835 835 835 835 835 834 834 834
762 758 758 757 757 760 755 753 754 753 754 756 758 759 755 747 745 746 748 755 755 748 744 743 747 750 752 757 761 766 770 773 776 778 780 784 788 791 794 797 801 804 806 808 810 812 814 816 818 819 822 823 824 824 825 826 827 828 828 828 828 829 830 830 831 831 832 832 833 833 833 833 832 832 832 832 832 832 832 832 832 833 833 833 833 834 834 834 834 834 835 835 834 834 834 834 834
762 757 754 754 754 755 752 750 751 751 753 756 757 755 751 750 750 747 746 749 744 736 737 742 746 749 753 758 764 771 776 781 785 787 787 789 793 795 799 801 804 807 810 812 813 814 815 816 818 820 823 824 825 826 826 827 828 829 829 828 829 829 830 830 831 831 832 833 833 833 833 833 833 832 832 832 832 832 832 832 832 833 833 833 833 833 834 834 834 834 834 834 834 834 833 833 833
760 759 753 752 751 750 749 747 748 749 751 752 751 751 752 754 752 747 746 745 740 738 739 745 750 754 760 765 770 775 780 783 788 794 794 793 794 796 799 802 804 806 808 811 812 812 814 815 816 819 823 825 827 827 828 828 829 829 829 829 829 829 830 830 831 831 832 833 834 834 833 834 833 833 833 832 832 832 832 831 831 832 832 833 833 833 833 833 834 833 834 833 833 833 833 833 832
756 756 752 750 749 747 746 746 746 747 749 748 750 754 753 752 749 748 749 746 743 742 744 748 752 757 763 768 773 777 781 780 782 791 797 798 795 794 795 797 800 802 803 805 808 810 812 813 815 818 822 826 828 828 828 829 829 829 829 829 829 829 829 830 831 831 832 833 834 834 834 834 834 833 833 833 832 832 832 831 831 831 831 832 832 832 832 833 833 833 833 833 833 833 832 832 832
751 752 751 749 748 745 744 744 744 745 746 747 751 755 752 748 747 752 753 749 746 745 748 751 753 760 765 768 771 774 778 779 778 782 792 798 796 795 795 796 797 799 800 802 804 808 810 813 815 817 819 823 828 829 829 828 829 829 829 829 829 828 829 829 830 831 832 833 834 834 834 833 833 833 832 832 832 832 831 831 831 831 831 831 831 832 832 832 832 832 832 832 832 832 832 832 831
745 748 749 747 747 743 742 743 741 742 744 745 752 754 751 745 748 758 757 749 747 749 754 755 756 763 765 767 770 772 777 780 779 778 784 791 792 794 798 798 799 799 801 801 802 804 808 814 816 816 817 819 823 828 828 828 828 829 829 829 829 828 828 828 829 831 832 833 833 833 832 832 831 831 831 831 831 831 831 831 831 831 831 831 831 832 832 832 832 832 832 832 832 831 831 831 830
743 746 748 746 745 743 741 742 740 743 744 742 747 751 750 747 748 755 756 751 747 751 758 760 762 766 766 768 770 772 775 779 780 779 783 788 787 788 793 796 797 798 799 799 800 800 805 814 817 818 819 818 818 822 826 827 827 828 829 830 829 828 828 828 829 831 832 832 832 831 830 830 829 829 829 829 829 830 830 830 830 830 830 831 831 831 832 832 831 831 831 831 831 831 830 830 829
743 744 750 748 745 744 740 740 739 742 744 738 743 755 756 752 750 751 752 751 749 753 761 764 765 767 768 770 771 772 774 777 779 779 782 785 787 785 788 791 792 795 797 798 798 799 805 813 818 819 820 819 817 818 824 826 827 828 829 830 829 828 828 828 829 831 831 831 830 830 830 830 830 830 829 828 828 828 829 829 829 829 830 830 830 831 831 831 831 831 831 831 830 830 829 829 828
743 743 749 752 752 748 738 737 739 740 741 734 743 765 766 754 752 752 749 750 752 757 762 764 766 769 771 772 773 775 776 777 778 779 780 782 785 785 786 788 789 792 795 797 796 796 803 811 816 818 819 820 818 818 823 825 825 827 829 829 829 828 828 829 829 830 830 829 830 830 831 831 831 830 829 828 827 827 828 828 829 829 829 829 830 830 830 830 830 830 830 830 830 829 828 828 827
743 745 748 751 758 752 737 735 738 741 738 731 743 766 764 753 755 754 748 748 752 760 764 766 768 770 772 773 774 776 776 778 779 780 782 782 783 784 785 787 788 790 792 796 793 792 799 806 811 815 817 818 818 819 822 823 824 825 826 827 827 828 828 828 829 829 829 829 829 830 831 831 830 830 829 828 828 828 828 828 828 828 828 829 829 829 830 830 830 830 829 829 829 828 828 827 827
743 750 754 751 756 752 737 731 734 739 738 731 743 763 760 752 754 753 748 748 751 761 767 768 770 771 772 773 773 776 776 778 779 780 783 784 784 784 784 785 786 788 790 793 792 791 797 803 807 811 813 816 816 818 821 822 823 823 824 824 825 827 827 828 828 828 828 828 829 829 830 830 830 829 828 828 828 828 828 828 828 828 828 828 829 829 829 830 830 829 829 828 828 828 827 827 826
746 750 756 752 754 752 741 732 729 732 737 736 741 755 758 752 752 751 749 750 752 762 769 769 771 771 771 773 773 774 776 777 779 780 782 783 785 785 785 785 784 786 789 791 790 789 793 800 804 807 810 812 813 816 818 820 821 822 822 823 825 826 827 827 827 828 828 828 828 829 830 830 830 829 829 828 828 828 828 829 829 829 828 828 828 829 829 829 829 829 829 828 828 828 827 826 826
755 750 752 750 749 750 746 737 728 728 735 740 741 747 754 752 751 752 751 751 754 762 769 769 770 771 772 773 774 775 775 776 777 778 780 781 783 785 786 785 784 785 787 789 788 786 788 795 802 805 808 809 811 814 816 818 819 820 821 822 824 825 826 827 827 828 828 828 828 829 829 830 830 830 829 829 828 828 829 829 829 828 828 828 828 828 828 829 829 829 828 828 828 828 827 826 825
758 753 751 749 745 746 745 738 730 728 733 740 743 748 756 756 753 753 753 752 755 762 767 768 769 771 773 774 775 776 775 776 776 777 778 779 781 785 787 787 786 786 787 789 789 786 785 791 799 803 806 808 811 813 815 817 818 818 819 820 822 824 825 827 827 828 828 828 828 829 829 830 830 830 829 829 828 829 829 829 829 828 828 828 828 827 828 828 828 828 828 828 828 828 827 826 825
749 748 747 747 745 745 741 733 726 726 734 740 742 749 758 760 756 754 754 754 758 764 767 768 770 771 773 774 775 777 777 776 776 777 778 779 781 784 787 788 788 788 789 789 789 788 786 789 795 800 804 806 809 812 814 816 817 817 818 819 821 823 825 827 828 828 828 828 828 829 830 830 829 829 829 828 828 829 829 828 828 828 828 827 827 827 828 828 828 828 828 829 829 828 828 827 826
741 743 744 742 742 743 736 730 724 723 734 740 739 747 756 757 755 753 754 757 763 767 769 770 771 771 772 773 775 777 778 777 777 778 780 781 783 785 787 789 790 791 791 790 790 789 788 789 793 798 802 805 807 810 812 814 814 815 817 818 820 822 824 826 827 828 828 828 829 829 829 829 829 829 829 829 829 829 829 829 828 828 828 827 827 827 828 828 828 828 829 829 829 829 828 828 827
740 743 744 742 742 740 732 729 724 721 732 739 739 749 757 755 754 754 754 758 763 765 767 769 770 771 772 772 774 777 778 778 778 779 781 783 784 785 786 789 790 791 791 791 790 790 790 791 793 797 801 804 807 809 811 813 813 814 816 818 820 822 824 826 827 828 828 828 828 829 829 829 829 829 830 830 829 829 829 829 829 828 828 827 827 827 828 828 828 829 829 829 830 829 829 829 827
742 743 744 744 741 738 733 728 724 723 732 739 740 750 758 755 754 757 756 756 758 759 759 762 765 768 771 772 773 776 778 778 777 778 780 782 783 784 785 788 790 791 791 791 791 790 791 792 794 797 801 803 806 808 810 812 813 815 816 818 820 822 824 826 827 828 828 829 829 829 830 830 829 830 830 830 829 830 830 829 829 828 828 827 827 828 828 829 829 829 829 829 830 830 830 830 828
742 743 747 746 738 738 740 732 726 725 729 734 740 753 761 759 758 759 758 757 759 760 759 761 763 764 767 769 771 774 774 775 776 777 778 780 782 784 786 788 790 791 792 792 791 791 792 793 795 798 801 803 805 808 810 812 813 815 817 819 821 822 824 826 827 828 829 829 829 829 829 830 830 830 830 830 830 830 830 829 829 828 828 828 828 828 829 829 829 829 830 829 829 830 830 830 830
742 741 744 745 738 737 737 732 728 728 730 733 744 764 771 765 766 765 761 762 764 764 765 766 766 765 767 769 771 772 770 770 772 774 777 779 781 784 786 788 790 791 792 792 792 792 793 794 796 798 801 803 805 807 810 811 813 815 817 819 821 823 825 826 827 829 829 829 829 829 829 830 830 831 831 830 830 830 830 829 829 828 828 828 829 829 829 829 830 830 830 830 830 830 831 831 830
744 739 738 738 737 735 734 732 733 739 745 737 742 771 782 771 770 769 762 764 768 769 769 770 770 769 769 770 770 770 769 769 770 773 776 778 781 783 786 788 790 791 792 793 793 793 794 795 797 799 802 804 806 808 809 811 813 814 816 818 820 822 824 827 828 828 829 829 829 829 830 831 831 831 831 830 830 830 830 829 829 829 829 829 829 830 830 830 830 831 831 831 830 831 831 831 831
747 735 729 732 734 735 735 736 740 748 749 735 730 757 783 780 772 767 761 763 768 769 771 771 770 770 768 768 768 767 768 769 770 773 774 776 779 781 783 786 789 791 793 794 794 794 795 796 798 800 802 804 806 808 810 811 813 814 816 817 819 821 824 827 828 829 829 829 829 830 830 831 831 831 831 831 831 830 830 829 830 830 830 830 830 830 830 831 831 832 832 831 831 832 831 831 832
743 728 723 730 733 734 736 739 744 743 739 735 728 740 772 783 770 763 762 765 769 770 770 771 769 768 766 765 765 765 766 767 769 771 773 774 776 778 781 784 787 790 792 793 794 794 795 796 799 801 803 805 806 808 810 811 813 814 816 818 820 822 824 827 828 829 829 829 829 830 831 831 832 832 832 831 831 831 830 831 831 831 830 831 830 830 831 832 833 833 833 833 833 833 832 832 832
732 722 722 727 729 732 733 738 742 739 740 748 741 739 767 780 765 760 764 766 770 770 767 768 766 764 764 763 764 764 765 766 766 769 771 773 775 777 780 784 787 789 791 793 794 795 796 797 799 801 803 805 806 808 810 811 813 814 816 818 820 823 825 827 828 828 829 829 830 831 832 832 832 832 832 832 832 832 832 832 832 831 831 831 831 831 832 833 834 834 834 834 834 834 834 833 833
722 719 723 724 726 729 730 736 739 740 749 755 745 740 762 779 769 763 769 768 767 765 762 763 762 760 761 761 762 763 764 766 767 769 770 772 774 777 780 783 786 789 790 792 794 795 796 797 799 801 803 805 806 808 810 811 813 815 817 818 820 823 825 827 827 828 829 829 830 831 832 832 832 833 833 833 833 833 833 833 832 831 831 832 832 833 834 835 835 835 836 836 835 835 835 834 834
717 719 725 728 729 729 730 733 734 746 755 747 739 738 750 773 772 761 760 753 748 754 758 759 758 758 759 759 760 762 763 765 767 769 771 773 775 777 780 784 786 788 790 792 793 795 796 797 799 801 803 805 806 808 810 812 814 816 817 819 820 823 824 825 826 827 828 829 830 831 832 832 833 834 834 834 834 834 834 833 832 832 832 833 833 834 835 836 837 837 837 837 837 836 836 836 835
717 720 728 736 739 736 738 739 739 754 757 735 731 737 742 760 765 752 745 735 734 743 748 750 752 753 754 756 757 760 761 764 766 769 771 773 776 778 781 783 786 788 790 791 793 795 796 798 800 801 803 805 807 809 810 812 815 817 818 820 821 823 824 824 825 826 828 829 830 831 832 833 834 834 834 834 835 835 834 834 834 834 834 834 835 836 837 838 838 839 839 838 838 837 837 837 836
720 722 730 744 751 750 753 753 748 753 748 725 723 734 738 744 741 735 734 730 731 734 731 735 741 745 750 752 755 757 760 763 765 768 771 773 775 777 780 783 785 787 789 792 794 795 797 799 800 802 804 806 807 809 811 813 816 818 819 821 822 824 824 824 825 826 828 828 829 830 831 833 833 833 834 835 835 836 836 836 836 836 836 836 837 838 838 839 840 840 840 839 839 839 839 839 838
721 724 731 745 753 758 763 760 752 749 738 720 718 728 737 736 727 722 723 721 720 723 725 729 733 738 744 748 752 756 759 761 764 767 770 772 774 776 779 782 784 787 789 792 794 796 798 800 801 802 804 806 808 810 812 814 816 819 820 822 823 824 824 825 825 826 827 828 829 830 831 832 832 833 835 836 837 837 837 838 838 837 838 838 838 839 840 841 841 841 841 840 840 841 841 841 841
718 716 723 737 740 745 755 752 746 745 735 722 722 729 732 730 721 713 711 711 715 722 728 732 736 740 744 748 752 756 759 762 764 767 770 772 774 776 778 781 784 787 789 791 794 796 797 799 801 802 805 807 809 811 813 814 817 819 820 822 823 824 824 824 825 826 827 828 829 830 831 832 833 834 836 837 838 839 839 839 839 838 839 839 840 841 841 841 841 841 841 841 842 843 843 843 843
715 711 719 729 725 725 736 738 734 732 730 727 725 725 721 717 715 710 708 714 721 727 732 736 741 745 747 751 754 756 759 762 764 767 770 772 774 776 778 781 784 786 789 791 793 795 797 799 801 802 805 808 809 811 814 815 817 819 821 822 823 824 824 824 825 826 827 828 829 830 831 833 834 836 837 838 839 840 840 840 839 839 840 841 842 842 842 842 842 842 842 843 844 845 845 844 844
711 714 719 715 710 713 724 735 734 728 733 733 725 724 719 715 720 718 716 723 729 730 734 738 742 746 750 752 754 756 759 761 763 766 769 771 773 775 778 780 783 786 788 791 793 795 797 799 801 802 805 808 810 812 814 816 818 819 821 822 823 824 824 825 825 826 827 828 829 830 832 834 836 837 838 839 839 840 840 840 840 841 842 842 843 843 843 843 843 843 844 846 846 846 846 845 845
704 715 713 704 706 712 717 732 738 735 739 733 723 725 722 721 732 732 726 733 736 735 736 741 745 748 751 752 754 756 757 759 763 766 769 771 773 775 778 780 783 786 788 791 793 795 797 800 801 802 806 808 811 813 815 816 818 819 821 822 823 824 825 826 826 827 827 828 830 831 833 835 837 838 839 839 840 840 840 841 842 843 843 844 844 844 844 845 845 846 847 848 848 847 847 846 845
693 700 698 702 717 724 723 731 738 740 744 737 727 726 722 725 738 737 732 736 737 737 738 741 745 747 749 752 753 755 757 760 763 766 769 771 773 775 777 780 783 786 789 791 793 796 798 800 802 803 807 809 811 813 815 817 818 820 821 822 824 825 825 826 826 827 827 828 830 832 834 836 837 838 839 839 840 841 842 843 843 844 844 844 845 845 846 847 847 848 849 849 849 848 847 846 846
688 691 692 697 708 716 718 723 728 732 741 740 734 732 724 722 728 728 729 732 732 735 738 739 741 744 747 749 751 754 756 759 762 765 768 770 772 775 777 780 784 786 789 791 793 796 798 801 803 804 808 810 812 814 815 817 819 820 822 823 824 825 825 826 827 827 827 829 831 833 835 837 837 838 839 840 841 842 843 844 844 844 845 845 846 847 848 849 850 850 851 850 850 849 847 847 847
694 698 701 700 702 705 710 716 718 720 731 736 737 736 723 712 713 716 719 723 723 726 729 733 738 741 744 747 748 751 754 758 761 764 767 769 772 775 777 781 784 787 790 792 793 796 798 801 803 805 808 810 812 814 815 817 818 820 821 822 823 824 825 826 827 827 828 830 832 835 836 837 838 839 840 841 842 843 844 844 845 845 846 847 848 849 850 851 852 852 852 851 850 849 848 848 849
692 697 701 701 702 707 717 724 718 711 719 726 729 733 720 705 704 706 707 711 713 714 718 725 732 736 740 744 746 748 751 756 760 762 766 769 772 775 778 781 785 787 790 792 794 796 798 801 804 806 808 810 812 814 815 817 818 819 820 821 823 824 825 826 827 828 830 831 833 836 837 837 839 840 841 842 843 844 844 845 845 846 847 848 849 850 852 853 853 853 853 852 851 849 849 850 850